TimeEST,TemperatureF,Dew PointF,Humidity,Sea Level PressureIn,VisibilityMPH,Wind Direction,Wind SpeedMPH,Gust SpeedMPH,PrecipitationIn,Events,Conditions,WindDirDegrees,DateUTC
12:53 AM,30.9,19.0,61,29.52,10.0,SW,9.2,-,N/A,,Overcast,230,2014-02-14 05:53:00
1:38 AM,32.0,21.2,64,29.47,10.0,SW,11.5,-,N/A,,Overcast,230,2014-02-14 06:38:00
1:53 AM,32.0,21.9,66,29.50,10.0,SW,11.5,-,N/A,,Overcast,230,2014-02-14 06:53:00
2:53 AM,30.0,21.0,69,29.51,8.0,West,11.5,28.8,N/A,,Overcast,260,2014-02-14 07:53:00
3:53 AM,27.0,19.0,72,29.54,10.0,West,8.1,20.7,N/A,,Overcast,270,2014-02-14 08:53:00
4:53 AM,26.1,19.0,75,29.56,8.0,West,8.1,18.4,N/A,,Overcast,270,2014-02-14 09:53:00
5:27 AM,26.6,19.4,74,29.55,8.0,West,9.2,20.7,N/A,,Overcast,260,2014-02-14 10:27:00
5:53 AM,25.0,19.0,78,29.60,8.0,West,8.1,17.3,N/A,,Overcast,260,2014-02-14 10:53:00
6:53 AM,25.0,18.0,75,29.62,7.0,Variable,6.9,16.1,N/A,,Overcast,0,2014-02-14 11:53:00
7:53 AM,24.1,18.0,77,29.65,5.0,West,6.9,-,N/A,,Haze,270,2014-02-14 12:53:00
8:53 AM,23.0,17.1,78,29.67,5.0,SW,9.2,-,N/A,,Haze,230,2014-02-14 13:53:00
9:27 AM,21.2,15.8,80,29.67,2.5,WSW,8.1,-,0.00,Snow,Light Snow,240,2014-02-14 14:27:00
9:41 AM,21.2,17.6,86,29.67,2.0,SW,8.1,-,0.00,Snow,Light Snow,230,2014-02-14 14:41:00
9:53 AM,23.0,17.1,78,29.70,2.0,WSW,8.1,-,0.00,Snow,Light Snow,240,2014-02-14 14:53:00
10:09 AM,23.0,17.6,80,29.68,2.5,SW,9.2,-,0.00,Snow,Light Snow,230,2014-02-14 15:09:00
10:18 AM,23.0,17.6,80,29.67,3.0,SW,9.2,-,0.00,,Haze,230,2014-02-14 15:18:00
10:53 AM,23.0,16.0,74,29.71,5.0,SW,11.5,17.3,0.00,,Haze,230,2014-02-14 15:53:00
11:53 AM,24.1,16.0,71,29.74,7.0,WSW,10.4,19.6,N/A,,Overcast,240,2014-02-14 16:53:00
12:53 PM,23.0,16.0,74,29.73,7.0,SW,12.7,19.6,N/A,,Overcast,220,2014-02-14 17:53:00
1:53 PM,23.0,15.1,72,29.73,7.0,WSW,10.4,-,N/A,,Overcast,240,2014-02-14 18:53:00
2:53 PM,23.0,15.1,72,29.72,6.0,SW,8.1,-,N/A,,Haze,230,2014-02-14 19:53:00
3:53 PM,23.0,15.1,72,29.72,6.0,WSW,6.9,-,N/A,,Haze,240,2014-02-14 20:53:00
4:16 PM,23.0,15.8,74,29.70,6.0,SW,6.9,-,N/A,,Haze,230,2014-02-14 21:16:00
4:53 PM,21.9,15.1,75,29.74,5.0,SSW,5.8,-,N/A,,Haze,210,2014-02-14 21:53:00
5:13 PM,21.2,15.8,80,29.71,6.0,SSW,4.6,-,N/A,,Haze,200,2014-02-14 22:13:00
5:53 PM,21.9,15.1,75,29.75,5.0,SSW,3.5,-,N/A,,Haze,210,2014-02-14 22:53:00
6:53 PM,23.0,14.0,68,29.77,7.0,Calm,Calm,-,N/A,,Overcast,0,2014-02-14 23:53:00
7:53 PM,23.0,15.1,72,29.79,7.0,Calm,Calm,-,N/A,,Overcast,0,2014-02-15 00:53:00
8:38 PM,21.2,14.0,74,29.77,7.0,WNW,3.5,-,N/A,,Scattered Clouds,290,2014-02-15 01:38:00
8:53 PM,21.9,14.0,72,29.81,8.0,Variable,5.8,-,N/A,,Partly Cloudy,0,2014-02-15 01:53:00
9:53 PM,21.0,12.9,71,29.83,10.0,WNW,5.8,-,N/A,,Clear,300,2014-02-15 02:53:00
10:53 PM,19.0,12.0,74,29.84,10.0,NW,8.1,-,N/A,,Clear,310,2014-02-15 03:53:00
11:53 PM,17.1,10.9,77,29.85,10.0,NW,6.9,-,N/A,,Scattered Clouds,320,2014-02-15 04:53:00